STARLINK-35159

Last updated on Tue Sep 16 2025 00:02:08 GMT+0000 (Coordinated Universal Time)

1 65461U 25195D 25257.90284456 -.00572063 00000+0 -35727-2 0 9993 2 65461 53.1555 0.8460 0002725 13.7807 346.3289 15.77689716 2990
UTC large
Height (km)
Speed (km/s)
/
Latitude / Longitude
Inclination (degrees)
Orbital Period (minutes)
Azimuth
Elevation
Range (km)
Doppler Factor

Next 0 passes for location: London (51.5072 / 0.1276)

Sorry there are no passes over London.